Weather History for KDEC - August, 2012

Change the Weather History Date:

Wednesday, August 1, 2012

  Actual Average Record
Temperature  
Mean Temperature 78 °F 75 °F  
Max Temperature 93 °F 86 °F 98 °F (2006)
Min Temperature 62 °F 64 °F 55 °F (1997)
Degree Days  
Heating Degree Days 0 0  
Month to date heating degree days 0 0  
Since 1 June heating degree days 13 18  
Since 1 July heating degree days 0 1  
Cooling Degree Days 13 10  
Month to date cooling degree days 13 10  
Year to date cooling degree days 1031 659  
Since 1 June cooling degree days 807 572  
Growing Degree Days 26 (Base 50)    
Moisture  
Dew Point 60 °F    
Average Humidity 62    
Maximum Humidity 93    
Minimum Humidity 30    
Precipitation  
Precipitation 0.00 in 0.09 in 0.58 in (2014)
Month to date precipitation 0.00 0.09  
Year to date precipitation 10.25 22.75  
Sea Level Pressure  
Sea Level Pressure 29.92 in    
Wind  
Wind Speed 4 mph (ENE)    
Max Wind Speed 9 mph    
Max Gust Speed 14 mph    
Visibility 10 miles    
Events      
T = Trace of Precipitation, MM = Missing Value Source: NWS Daily Summary

Daily Weather History Graph

Daily Weather History Graph

Search for Another Location

Airport or City:

Trip Planner

Search our weather history database for the weather conditions in past years. The results will help you decide how hot, cold, wet, or windy it might be!

Date:

Astronomy

Aug. 01, 2012 Rise Set
Actual Time 5:54 AM CDT 8:08 PM CDT
Civil Twilight 5:24 AM CDT 8:38 PM CDT
Nautical Twilight 4:47 AM CDT 9:15 PM CDT
Astronomical Twilight 4:06 AM CDT 9:55 PM CDT
Moon 7:38 PM CDT (8/1) 5:23 AM CDT (8/1)
Length of Visible Light 15h 13m
Length of Day
14h 13m
Full, 100% of the Moon is Illuminated
Aug 1
Full
Aug 1
Full
Aug 9
Last Quarter
Aug 17
New
Aug 24
First Quarter

Hourly Weather History & Observations

Time (CDT) Temp. Heat Index Dew Point Humidity Pressure Visibility Wind Dir Wind Speed Gust Speed Precip Events Conditions
12:54 AM 69.1 °F - 64.9 °F 87% 29.93 in 10.0 mi ENE 4.6 mph - N/A   Clear
1:54 AM 69.1 °F - 64.9 °F 87% 29.94 in 10.0 mi NE 4.6 mph - N/A   Clear
2:51 AM 66.2 °F - 62.6 °F 88% 29.95 in 10.0 mi Calm Calm - N/A   Clear
2:54 AM 66.0 °F - 63.0 °F 90% 29.93 in 10.0 mi Calm Calm - N/A   Clear
3:54 AM 64.9 °F - 63.0 °F 93% 29.93 in 10.0 mi NNE 3.5 mph - N/A   Clear
4:54 AM 66.0 °F - 61.0 °F 84% 29.94 in 10.0 mi Calm Calm - N/A   Clear
5:54 AM 62.1 °F - 59.0 °F 90% 29.95 in 9.0 mi Calm Calm - N/A   Clear
6:54 AM 64.0 °F - 60.1 °F 87% 29.95 in 10.0 mi NE 3.5 mph - N/A   Clear
7:54 AM 71.1 °F - 62.1 °F 73% 29.96 in 10.0 mi ENE 4.6 mph - N/A   Clear
8:54 AM 78.8 °F - 59.0 °F 51% 29.98 in 10.0 mi ENE 5.8 mph - N/A   Clear
9:54 AM 82.9 °F 82.6 °F 57.9 °F 42% 29.96 in 10.0 mi East 8.1 mph - N/A   Clear
10:54 AM 86.0 °F 86.3 °F 62.1 °F 44% 29.95 in 10.0 mi ENE 9.2 mph - N/A   Clear
11:54 AM 88.0 °F 86.9 °F 57.9 °F 36% 29.94 in 10.0 mi Variable 5.8 mph - N/A   Clear
12:54 PM 89.1 °F 88.0 °F 57.9 °F 35% 29.94 in 10.0 mi East 6.9 mph - N/A   Clear
1:54 PM 91.4 °F 89.9 °F 57.2 °F 31% 29.94 in 10.0 mi Variable 4.6 mph - N/A   Clear
2:54 PM 91.0 °F 89.2 °F 55.9 °F 30% 29.90 in 10.0 mi Variable 6.9 mph - N/A   Clear
3:54 PM 91.4 °F 89.9 °F 57.2 °F 31% 29.91 in 10.0 mi Calm Calm - N/A   Clear
4:54 PM 91.4 °F 89.9 °F 57.2 °F 31% 29.90 in 10.0 mi ESE 5.8 mph - N/A   Clear
5:54 PM 91.0 °F 90.0 °F 57.9 °F 33% 29.87 in 10.0 mi East 6.9 mph - N/A   Clear
6:54 PM 89.1 °F 89.0 °F 61.0 °F 39% 29.87 in 10.0 mi East 4.6 mph - N/A   Clear
7:54 PM 82.0 °F 83.4 °F 64.0 °F 54% 29.86 in 10.0 mi East 5.8 mph - N/A   Clear
8:54 PM 73.9 °F - 62.1 °F 66% 29.86 in 10.0 mi Calm Calm - N/A   Clear
9:54 PM 71.1 °F - 62.1 °F 73% 29.88 in 10.0 mi Calm Calm - N/A   Clear
10:54 PM 71.1 °F - 61.0 °F 70% 29.89 in 10.0 mi Calm Calm - N/A   Clear
11:54 PM 68.0 °F - 60.8 °F 78% 29.91 in 10.0 mi ESE 3.5 mph - N/A   Clear